Location: Breitenfeld
(46.8500°N, 15.6333°E)
Time: 17:47:39
(UTC+00:00)

Cosmos 2333 Rocket - Pass Details

Date: 09 April 2020
Orbit: 841 x 860 km, 70.8° (Epoch: 25 May)

Event Time Altitude Azimuth Distance (km) Brightness Sun altitude
Rises 21:52:19 0° 339° (NNW) 3,408 6.4 -33.2°
Reaches altitude 10° 21:55:40 10° 359° (N) 2,470 5.4 -33.4°
Maximum altitude 21:59:21 17° 40° (NE) 1,997 4.4 -33.6°
Enters shadow 22:00:32 16° 55° (NE) 2,051 4.3 -33.6°
